South Haven, MI

8:41 AM EDT on July 29, 2016 (GMT -0400)
South Haven

Weather History for KLWA - December, 2013

Change the Weather History Date:

Wednesday, December 4, 2013

  Actual Average (KBIV) Record (KBIV)
Temperature  
Mean Temperature 52 °F 35 °F  
Max Temperature 58 °F 40 °F 65 °F (2012)
Min Temperature 45 °F 29 °F 1 °F (1966)
Degree Days  
Heating Degree Days 14 30  
Month to date heating degree days 119  
Since 1 July heating degree days 1342  
Cooling Degree Days 0 0  
Month to date cooling degree days 0  
Year to date cooling degree days 693  
Growing Degree Days 2 (Base 50)    
Moisture  
Dew Point 48 °F    
Average Humidity 94    
Maximum Humidity 99    
Minimum Humidity 80    
Precipitation  
Precipitation 0.00 in 0.10 in 0.69 in (1955)
Month to date precipitation 0.40  
Year to date precipitation 34.56  
Sea Level Pressure  
Sea Level Pressure 29.68 in    
Wind  
Wind Speed 6 mph (SSE)    
Max Wind Speed 18 mph    
Max Gust Speed 30 mph    
Visibility 4 miles    
Events Rain    
T = Trace of Precipitation, MM = Missing Value Source: NWS Daily Summary

Daily Weather History Graph

Daily Weather History Graph

Search for Another Location

Airport or City:

Trip Planner

Search our weather history database for the weather conditions in past years. The results will help you decide how hot, cold, wet, or windy it might be!

Date:

Astronomy

Dec. 04, 2013 Rise Set
Actual Time 7:57 AM EST 5:12 PM EST
Civil Twilight 7:26 AM EST 5:44 PM EST
Nautical Twilight 6:51 AM EST 6:19 PM EST
Astronomical Twilight 6:17 AM EST 6:53 PM EST
Moon 9:24 AM EST (12/4) 7:23 PM EST (12/4)
Length of Visible Light 10h 17m
Length of Day
9h 14m
Waxing Crescent, 4% of the Moon is Illuminated
Dec 4
Waxing Crescent
Dec 9
First Quarter
Dec 17
Full
Dec 25
Last Quarter
Jan 1
New

Hourly Weather History & Observations

Time (EST) Temp. Windchill Dew Point Humidity Pressure Visibility Wind Dir Wind Speed Gust Speed Precip Events Conditions
12:14 AM 46.4 °F 44.3 °F 45.9 °F 98% 29.77 in 2.0 mi SSE 4.6 mph - N/A   Overcast
12:35 AM 46.6 °F - 46.0 °F 98% 29.76 in 2.5 mi SSE 5.8 mph - N/A   Overcast
12:55 AM 46.6 °F - 45.9 °F 97% 29.75 in 2.5 mi SSE 4.6 mph - N/A   Overcast
1:14 AM 46.4 °F 44.3 °F 45.5 °F 97% 29.75 in 2.5 mi SSE 4.6 mph - N/A   Overcast
1:35 AM 46.2 °F 44.1 °F 45.5 °F 97% 29.76 in 2.5 mi SSE 4.6 mph - N/A   Overcast
1:55 AM 46.2 °F 44.1 °F 45.3 °F 97% 29.77 in 2.5 mi South 4.6 mph - N/A   Overcast
2:15 AM 46.0 °F 43.1 °F 45.5 °F 98% 29.77 in 2.5 mi South 5.8 mph - N/A   Overcast
2:35 AM 46.0 °F 43.9 °F 45.1 °F 97% 29.78 in 2.5 mi South 4.6 mph - N/A   Overcast
2:55 AM 45.7 °F 43.4 °F 45.0 °F 97% 29.78 in 2.5 mi SSE 4.6 mph - N/A   Overcast
3:15 AM 45.5 °F 44.2 °F 44.8 °F 97% 29.77 in 2.5 mi SSE 3.5 mph - N/A   Mostly Cloudy
3:35 AM 45.7 °F - 44.8 °F 97% 29.78 in 2.5 mi Calm Calm - N/A   Scattered Clouds
3:55 AM 45.0 °F 43.5 °F 44.1 °F 97% 29.78 in 2.5 mi South 3.5 mph - N/A   Mostly Cloudy
4:15 AM 45.5 °F - 44.8 °F 97% 29.78 in 3.0 mi Calm Calm - N/A   Overcast
4:34 AM 45.5 °F 44.2 °F 44.4 °F 96% 29.78 in 3.0 mi SE 3.5 mph - N/A   Overcast
4:55 AM 45.5 °F 44.2 °F 44.6 °F 97% 29.78 in 3.0 mi ESE 3.5 mph - N/A   Overcast
5:15 AM 45.0 °F - 44.1 °F 97% 29.77 in 3.0 mi Calm Calm - N/A   Mostly Cloudy
5:35 AM 45.1 °F - 44.1 °F 96% 29.78 in 3.0 mi Calm Calm - N/A   Mostly Cloudy
5:55 AM 45.5 °F - 44.2 °F 95% 29.78 in 3.0 mi Calm Calm - N/A   Overcast
6:15 AM 45.1 °F 43.7 °F 44.1 °F 96% 29.78 in 3.0 mi SE 3.5 mph - N/A   Overcast
6:35 AM 45.1 °F 42.8 °F 44.1 °F 96% 29.77 in 3.0 mi SE 4.6 mph - N/A   Overcast
6:55 AM 45.0 °F 41.8 °F 44.1 °F 97% 29.78 in 3.0 mi SE 5.8 mph - N/A   Overcast
7:15 AM 45.5 °F 44.2 °F 44.2 °F 95% 29.78 in 3.0 mi SE 3.5 mph - N/A   Overcast
7:35 AM 45.5 °F 43.2 °F 44.6 °F 97% 29.78 in 3.0 mi SE 4.6 mph - N/A   Mostly Cloudy
7:55 AM 45.5 °F 43.2 °F 44.6 °F 97% 29.78 in 3.0 mi SSE 4.6 mph - N/A   Scattered Clouds
8:15 AM 45.7 °F 42.0 °F 44.6 °F 96% 29.78 in 2.0 mi SE 6.9 mph - N/A   Scattered Clouds
8:35 AM 45.9 °F 40.8 °F 44.8 °F 96% 29.77 in 2.0 mi SE 10.4 mph - N/A   Mostly Cloudy
8:55 AM 46.4 °F 43.5 °F 45.5 °F 97% 29.77 in 1.8 mi SE 5.8 mph - N/A   Overcast
9:15 AM 46.8 °F - 46.0 °F 97% 29.76 in 1.5 mi SE 5.8 mph - N/A   Overcast
9:35 AM 46.9 °F - 46.4 °F 98% 29.75 in 1.5 mi SE 6.9 mph - N/A   Overcast
9:55 AM 47.3 °F - 46.4 °F 97% 29.75 in 1.5 mi SE 9.2 mph - N/A   Overcast
10:15 AM 47.3 °F - 46.6 °F 97% 29.74 in 1.2 mi SE 9.2 mph - N/A   Overcast
10:35 AM 47.5 °F - 46.9 °F 98% 29.74 in 1.0 mi SE 8.1 mph - N/A   Overcast
10:55 AM 47.8 °F - 47.3 °F 98% 29.74 in 1.2 mi SE 8.1 mph - N/A   Overcast
11:14 AM 48.2 °F - 47.3 °F 97% 29.74 in 1.2 mi SSE 8.1 mph - N/A   Overcast
11:35 AM 48.2 °F - 47.5 °F 97% 29.73 in 1.5 mi SSE 8.1 mph - N/A   Overcast
11:55 AM 48.6 °F - 47.7 °F 97% 29.72 in 1.8 mi SSE 5.8 mph 9.2 mph N/A   Overcast
12:15 PM 49.1 °F - 48.0 °F 96% 29.72 in 2.0 mi SSE 6.9 mph - N/A   Overcast
12:35 PM 48.7 °F - 48.0 °F 97% 29.71 in 1.8 mi SE 6.9 mph - N/A   Overcast
12:55 PM 49.1 °F - 48.4 °F 97% 29.70 in 2.0 mi SE 5.8 mph - N/A   Overcast
1:15 PM 49.5 °F - 48.6 °F 97% 29.68 in 2.0 mi ESE 8.1 mph - N/A   Overcast
1:35 PM 50.2 °F - 48.9 °F 95% 29.67 in 2.5 mi ESE 8.1 mph - N/A   Overcast
1:55 PM 50.9 °F - 49.1 °F 94% 29.66 in 3.0 mi ESE 6.9 mph - N/A   Overcast
2:15 PM 51.3 °F - 49.3 °F 93% 29.64 in 4.0 mi SE 9.2 mph - N/A   Overcast
2:35 PM 51.8 °F - 49.3 °F 91% 29.63 in 4.0 mi SE 10.4 mph 16.1 mph N/A   Mostly Cloudy
2:55 PM 52.0 °F - 49.3 °F 90% 29.61 in 4.0 mi SE 10.4 mph 16.1 mph N/A   Overcast
3:15 PM 52.2 °F - 49.5 °F 91% 29.60 in 4.0 mi ESE 12.7 mph 17.3 mph N/A   Overcast
3:35 PM 52.3 °F - 49.6 °F 91% 29.59 in 3.0 mi SE 10.4 mph 17.3 mph N/A   Overcast
3:55 PM 52.0 °F - 50.0 °F 93% 29.59 in 2.5 mi SE 10.4 mph 18.4 mph N/A   Overcast
4:15 PM 52.0 °F - 50.2 °F 94% 29.59 in 3.0 mi SE 10.4 mph - N/A   Overcast
4:35 PM 51.8 °F - 50.5 °F 95% 29.59 in 2.0 mi SE 6.9 mph - N/A   Overcast
4:55 PM 51.8 °F - 50.9 °F 97% 29.59 in 1.5 mi SE 8.1 mph - N/A   Overcast
5:15 PM 52.0 °F - 51.3 °F 97% 29.58 in 1.8 mi SE 9.2 mph - N/A Rain Light Rain
5:35 PM 52.2 °F - 51.8 °F 99% 29.58 in 2.0 mi SE 8.1 mph - N/A   Light Drizzle
5:55 PM 52.7 °F - 52.2 °F 98% 29.58 in 3.0 mi SSE 8.1 mph 17.3 mph N/A   Overcast
6:15 PM 53.4 °F - 52.5 °F 97% 29.58 in 4.0 mi SSE 6.9 mph - N/A   Overcast
6:35 PM 53.8 °F - 52.7 °F 96% 29.57 in 4.0 mi SSE 8.1 mph - N/A   Overcast
6:54 PM 54.0 °F - 52.7 °F 95% 29.57 in 4.0 mi SSE 8.1 mph - N/A   Overcast
7:15 PM 55.2 °F - 53.2 °F 93% 29.57 in 5.0 mi South 10.4 mph 19.6 mph N/A   Overcast
7:35 PM 55.6 °F - 53.6 °F 93% 29.56 in 5.0 mi South 10.4 mph - N/A   Overcast
7:55 PM 55.8 °F - 53.6 °F 92% 29.56 in 5.0 mi South 8.1 mph - N/A   Overcast
8:15 PM 56.5 °F - 54.0 °F 91% 29.55 in 5.0 mi South 6.9 mph - N/A   Overcast
8:35 PM 57.2 °F - 54.5 °F 91% 29.55 in 7.0 mi South 10.4 mph 18.4 mph N/A   Overcast
8:55 PM 57.7 °F - 54.5 °F 89% 29.56 in 7.0 mi SSW 13.8 mph 19.6 mph N/A   Overcast
9:15 PM 58.1 °F - 53.8 °F 86% 29.57 in 7.0 mi SSW 15.0 mph 21.9 mph N/A   Overcast
9:35 PM 58.1 °F - 53.1 °F 83% 29.56 in 7.0 mi SW 18.4 mph 29.9 mph N/A   Scattered Clouds
9:55 PM 58.1 °F - 52.7 °F 82% 29.57 in 7.0 mi SW 15.0 mph 26.5 mph N/A   Scattered Clouds
10:15 PM 58.3 °F - 52.2 °F 80% 29.56 in 10.0 mi SW 15.0 mph 25.3 mph N/A   Mostly Cloudy
10:35 PM 57.4 °F - 51.8 °F 82% 29.57 in 10.0 mi SW 13.8 mph 20.7 mph N/A   Clear
10:55 PM 57.4 °F - 51.8 °F 82% 29.57 in 10.0 mi SW 16.1 mph 21.9 mph N/A   Scattered Clouds
11:15 PM 57.2 °F - 51.4 °F 81% 29.57 in 10.0 mi SW 15.0 mph 21.9 mph N/A   Scattered Clouds
11:35 PM 57.2 °F - 51.4 °F 81% 29.58 in 10.0 mi SW 15.0 mph 24.2 mph N/A   Scattered Clouds
11:55 PM 56.7 °F - 50.9 °F 81% 29.57 in 10.0 mi SW 15.0 mph 23.0 mph N/A   Overcast